This is the latest recevied weather packets stored in our database for station/object XE1GMR. If no packets are shown the sender has not sent any weather packets the latest 10 day(s).
| Time | Temp. | Humidity | Pressure | Rain* | Wind** | Luminosity | Snow |
|---|---|---|---|---|---|---|---|
| 1778263002 | 29.44° C | 40% | 1120.2 hPa | 0 mm | - | 823 W/m² | - |
| 1778262698 | 29.44° C | 40% | 1120.1 hPa | 0 mm | - | 836 W/m² | - |
| 1778262396 | 28.89° C | 40% | 1120.2 hPa | 0 mm | - | 828 W/m² | - |
| 1778262093 | 28.33° C | 42% | 1120.4 hPa | 0 mm | - | 832 W/m² | - |
| 1778261790 | 28.89° C | 42% | 1120.2 hPa | 0 mm | - | 829 W/m² | - |
| 1778261486 | 28.89° C | 41% | 1120.4 hPa | 0 mm | - | 822 W/m² | - |
| 1778261183 | 27.78° C | 43% | 1120.5 hPa | 0 mm | - | 804 W/m² | - |
| 1778260880 | 27.22° C | 44% | 1120.8 hPa | 0 mm | - | 799 W/m² | - |
| 1778260576 | 27.78° C | 44% | 1120.4 hPa | 0 mm | - | 810 W/m² | - |
| 1778260273 | 27.78° C | 44% | 1120.8 hPa | 0 mm | - | 809 W/m² | - |
| 1778259970 | 27.22° C | 45% | 1120.5 hPa | 0 mm | - | 776 W/m² | - |
| 1778259668 | 27.22° C | 46% | 1120.8 hPa | 0 mm | - | 729 W/m² | - |
| 1778259364 | 28.33° C | 43% | 1120.8 hPa | 0 mm | - | 721 W/m² | - |
| 1778259061 | 27.78° C | 44% | 1120.9 hPa | 0 mm | - | 750 W/m² | - |
| 1778258757 | 26.67° C | 45% | 1121 hPa | 0 mm | - | 762 W/m² | - |
| 1778258454 | 27.22° C | 45% | 1121 hPa | 0 mm | - | 759 W/m² | - |
| 1778258152 | 26.67° C | 46% | 1121.3 hPa | 0 mm | - | 771 W/m² | - |
| 1778257848 | 27.22° C | 45% | 1121.1 hPa | 0 mm | - | 757 W/m² | - |
| 1778257545 | 26.67° C | 46% | 1121.4 hPa | 0 mm | - | 765 W/m² | - |
| 1778257243 | 26.67° C | 47% | 1121.5 hPa | 0 mm | - | 760 W/m² | - |
| 1778256939 | 27.22° C | 46% | 1121.4 hPa | 0 mm | - | 765 W/m² | - |
| 1778256637 | 26.67° C | 46% | 1121.5 hPa | 0 mm | - | 748 W/m² | - |
| 1778256335 | 26.67° C | 46% | 1121.5 hPa | 0 mm | - | 763 W/m² | - |
| 1778256032 | 26.11° C | 47% | 1121.6 hPa | 0 mm | - | 774 W/m² | - |
| 1778255729 | 25.56° C | 47% | 1121.6 hPa | 0 mm | - | 768 W/m² | - |
* Rain latest hour (hover to see other rain measurements)
** Current wind speed in m/s (hover to see current wind gust speed)